[[{"header":{"parameterUnit":"m.s-1","parameterCategory":2,"la1":30.2991,"la2":30.254,"lo1":-89.0895,"lo2":-89.0444,"dy":0.0017,"dx":0.0017,"nx":28,"ny":28,"refTime":"2024-07-21T21:00:00:Z","depth":"0","parameterNumber":2,"parameterNumberName":"U-component_of_CURRENTS"},"data":[0,0,0,0,0,0,0,0,0,0,0,0,0,0,0,0,0,0,0,0,0,0,0,0,0,0,0,0,0,0,0,0,0,0,0,0,0,0,0,0,0,0,0,0,0,0,0,0,0,0,0,0,0,0,0,0,0,0,0.2874,0.2873,0,0.2782,0.2781,0.278,0.2705,0.2704,0.2704,0.2703,0.2665,0.2664,0.2664,0,0,0,0,0,0,0,0,0,0,0,0,0,0.2928,0.2928,0.2874,0.2873,0.2872,0.2783,0.2781,0.2779,0.2705,0.2704,0.2704,0.2703,0.2665,0.2664,0.2664,0,0,0,0,0,0,0,0,0,0,0,0,0,0.2874,0.2927,0.2874,0.2827,0.2822,0.2783,0.2781,0.2779,0.2705,0.2704,0.2704,0.2703,0.2665,0.2664,0.2663,0.2671,0,0,0.2661,0.266,0,0,0,0,0,0,0,0,0.2877,0.2872,0.2835,0.283,0.2825,0.2757,0.2786,0.2747,0.2705,0.2746,0.2703,0.2703,0.2704,0.27,0.2678,0.2669,0.2668,0.2661,0.266,0.266,0.2659,0,0,0,0,0,0,0,0.2881,0.2875,0.2834,0.2834,0.2828,0.2792,0.2783,0.2777,0.2728,0.2742,0.2737,0.2733,0.2701,0.2679,0.2677,0.2667,0.2661,0.266,0.2659,0.2659,0.2749,0.2751,0,0,0,0,0,0,0.2904,0.2879,0.2837,0.2831,0.2854,0.2792,0.2782,0.2777,0.2726,0.2719,0.2734,0.273,0.2681,0.2678,0.2675,0.274,0.266,0.2659,0.2658,0.2746,0.2749,0.2752,0,0,0,0,0,0,0.2905,0.2901,0.2841,0.2856,0.2846,0.2792,0.2786,0.2775,0.2765,0.272,0.2713,0.2736,0.268,0.2676,0.2685,0.2736,0.2658,0.2658,0.2742,0.2747,0.2751,0.2833,0,0,0,0,0,0,0.2907,0.2902,0.2905,0.2858,0.2846,0.2839,0.2787,0.2774,0.2764,0.2759,0.272,0.2715,0.2679,0.2687,0.2684,0.2733,0.2657,0.2739,0.2744,0.2749,0.2826,0.2839,0.285,0,0,0,0,0,0.2909,0.2912,0.2905,0.29,0.2852,0.2841,0.2832,0.2788,0.2766,0.2773,0.2745,0.2716,0.2721,0.2687,0.2684,0.2734,0.2736,0.2743,0.2749,0.2821,0.2837,0.285,0,0,0,0,0,0,0.2924,0.2904,0.2895,0.2889,0.288,0.283,0.2826,0.2804,0.2784,0.278,0.2735,0.2729,0.2768,0.2743,0.2707,0.2782,0.2732,0.2739,0.2789,0.2803,0.2815,0.2848,0.2656,0,0,0,0,0,0.2936,0.2938,0.2918,0.2915,0.2916,0.2879,0.2867,0.2847,0.2823,0.2812,0.2785,0.2776,0.2792,0.2788,0.2794,0.2816,0.2844,0.2856,0.2868,0.2878,0.2907,0.3014,0.3038,0.2774,0.2774,0.2774,0,0,0.2939,0.2929,0.2929,0.292,0.2904,0.2909,0.2869,0.2868,0.2876,0.2815,0.2819,0.2821,0.2813,0.2845,0.2862,0.2826,0.2963,0.2887,0.2895,0.2919,0.3023,0.3049,0.3072,0.2779,0.2778,0.2777,0,0,0.2942,0.2946,0.2947,0.2951,0.2948,0.2939,0.2951,0.2924,0.2921,0.2931,0.2909,0.2946,0.293,0.2949,0.2955,0.3044,0.3036,0.3045,0.3115,0.3217,0.324,0.326,0.3304,0.3327,0.3036,0.3037,0.3037,0,0.2948,0.2941,0.2947,0.2953,0.2961,0.2962,0.2973,0.2978,0.2958,0.2982,0.295,0.3005,0.2992,0.3067,0.3091,0.3075,0.3108,0.305,0.3234,0.3254,0.3274,0.3314,0.3339,0.3041,0.3041,0.304,0.304,0,0.2944,0.295,0.2956,0.2971,0.2992,0.3003,0.3027,0.3054,0.3059,0.3068,0.3148,0.3144,0.3178,0.319,0.3157,0.3294,0.3263,0.3246,0.3193,0.3306,0.334,0.3364,0.3048,0.3046,0.3045,0.3044,0,0,0.2918,0.2947,0.2947,0.2965,0.3004,0.302,0.3077,0.3131,0.318,0.3204,0.3275,0.3324,0.334,0.3352,0.3342,0.3422,0.3569,0.3389,0.3392,0.3426,0.3765,0.358,0.3588,0.3583,0.3588,0.3593,0.3723,0,0.2907,0.2919,0.2948,0.2986,0.2999,0.3056,0.311,0.3175,0.3227,0.33,0.3365,0.3427,0.3396,0.342,0.3506,0.3561,0.3643,0.3533,0.3657,0.3661,0.3479,0.3614,0.3343,0.3423,0.3747,0.3751,0.3754,0,0.2877,0.2895,0.2918,0.2998,0.3015,0.305,0.3164,0.3217,0.3345,0.3393,0.3493,0.3532,0.3658,0.3613,0.3794,0.3723,0.3763,0.3801,0.3806,0.3629,0.3523,0.337,0.3455,0.3384,0.3792,0.3789,0.3786,0,0.2825,0.2877,0.2898,0.2918,0.3007,0.3051,0.3115,0.3238,0.3327,0.3462,0.3549,0.3676,0.3763,0.386,0.3918,0.3876,0.4108,0.4053,0.393,0.3914,0.3707,0.3663,0.3734,0.4214,0.4214,0.4213,0.4213,0,0.2783,0.2798,0.2874,0.288,0.2954,0.3026,0.3138,0.3217,0.3373,0.3499,0.3594,0.371,0.3842,0.3963,0.3991,0.4031,0.4171,0.3981,0.3961,0.372,0.3678,0.3621,0.3611,0.4218,0.4217,0.4216,0.4215,0,0.2703,0.2742,0.2782,0.2879,0.2921,0.2973,0.3157,0.3253,0.3387,0.3558,0.3613,0.3798,0.3921,0.4014,0.417,0.4114,0.4031,0.4144,0.3815,0.3752,0.3489,0.3492,0.3411,0.333,0.4018,0.4015,0.4012,0,0.2651,0.2658,0.2773,0.2831,0.2873,0.2981,0.3078,0.3237,0.3353,0.3597,0.3678,0.3848,0.3912,0.4041,0.3976,0.3975,0.3937,0.3738,0.3606,0.347,0.3464,0.3343,0.3275,0.3365,0.3357,0.3351,0.3345,0,0.258,0.2627,0.2685,0.2811,0.2907,0.3018,0.3155,0.3241,0.3436,0.3554,0.3687,0.3742,0.3801,0.3653,0.3642,0.361,0.3502,0.3597,0.3583,0.307,0.2826,0.2735,0.326,0.3287,0.3293,0.3297,0.3301,0.3303,0.2552,0.2596,0.271,0.2825,0.2925,0.3024,0.3061,0.3192,0.3316,0.339,0.3548,0.3492,0.3404,0.3295,0.326,0.3003,0.309,0.2864,0.2915,0.2833,0.264,0.2998,0.2914,0.2917,0.2921,0.2923,0.2926,0,0.2552,0.2633,0.2735,0.2849,0.2909,0.2987,0.3097,0.3075,0.3099,0.3153,0.3166,0.2994,0.2808,0.2732,0.2484,0.2348,0.2252,0.231,0.2128,0.2129,0.2555,0.2408,0.2057,0.2057,0.2057,0.2057,0.2058,0.2058,0.2571,0.2666,0.273,0.2817,0.2867,0.2858,0.287,0.2813,0.2796,0.263,0.2473,0.243,0.2407,0.2229,0.2012,0.1956,0.1881,0.1687,0.1855,0.2194,0.225,0.2304,0.2166,0.177,0.177,0.124,0.1236,0.1234]},{"header":{"parameterUnit":"m.s-1","parameterCategory":2,"la1":30.2991,"la2":30.254,"lo1":-89.0895,"lo2":-89.0444,"dy":0.0017,"dx":0.0017,"nx":28,"ny":28,"refTime":"2024-07-21T21:00:00:Z","depth":"0","parameterNumber":3,"parameterNumberName":"V-component_of_CURRENTS"},"data":[0,0,0,0,0,0,0,0,0,0,0,0,0,0,0,0,0,0,0,0,0,0,0,0,0,0,0,0,0,0,0,0,0,0,0,0,0,0,0,0,0,0,0,0,0,0,0,0,0,0,0,0,0,0,0,0,0,0,0.0231,0.0231,0,0.0215,0.0214,0.0214,0.0209,0.0209,0.0209,0.0209,0.0181,0.018,0.0179,0,0,0,0,0,0,0,0,0,0,0,0,0,0.023,0.023,0.0231,0.0231,0.023,0.0215,0.0214,0.0214,0.0209,0.0209,0.0209,0.0209,0.0181,0.018,0.0179,0,0,0,0,0,0,0,0,0,0,0,0,0,0.0223,0.023,0.0231,0.0226,0.0226,0.0215,0.0214,0.0214,0.0209,0.0209,0.0209,0.0209,0.0181,0.018,0.0179,0.0168,0,0,0.0175,0.0174,0,0,0,0,0,0,0,0,0.0224,0.0223,0.0227,0.0226,0.0226,0.0214,0.0204,0.0198,0.0209,0.0215,0.0209,0.0209,0.0191,0.0189,0.0185,0.0167,0.0166,0.0175,0.0174,0.0174,0.0173,0,0,0,0,0,0,0,0.0224,0.0224,0.0224,0.0227,0.0226,0.0215,0.0215,0.0202,0.0202,0.0214,0.0214,0.0213,0.019,0.0186,0.0184,0.0165,0.0175,0.0174,0.0173,0.0172,0.0159,0.016,0,0,0,0,0,0,0.0228,0.0224,0.0225,0.0224,0.0225,0.0215,0.0215,0.0217,0.0202,0.02,0.0212,0.0212,0.0189,0.0186,0.0183,0.0196,0.0174,0.0172,0.0172,0.0159,0.0159,0.016,0,0,0,0,0,0,0.0228,0.0228,0.0225,0.0224,0.0222,0.0216,0.0218,0.0217,0.0216,0.0201,0.0199,0.0214,0.0189,0.0185,0.0182,0.0194,0.0172,0.0171,0.0158,0.0159,0.016,0.0205,0,0,0,0,0,0,0.0228,0.0229,0.0231,0.0224,0.0223,0.0228,0.0218,0.0217,0.0215,0.0215,0.0201,0.0198,0.0188,0.0184,0.0181,0.0192,0.017,0.0158,0.0159,0.0159,0.0203,0.0207,0.021,0,0,0,0,0,0.0228,0.0236,0.0232,0.0232,0.0227,0.0228,0.0227,0.0221,0.0215,0.022,0.0211,0.0199,0.0187,0.0184,0.018,0.019,0.0157,0.0158,0.0159,0.0201,0.0206,0.021,0,0,0,0,0,0,0.0234,0.0236,0.0231,0.0238,0.0236,0.0227,0.0231,0.0223,0.0219,0.0218,0.0203,0.02,0.0202,0.0188,0.0185,0.0189,0.017,0.0171,0.0203,0.0208,0.0212,0.0242,0.0169,0,0,0,0,0,0.0237,0.0247,0.0241,0.0247,0.0247,0.0238,0.0237,0.0232,0.0227,0.0225,0.0215,0.0205,0.0202,0.0199,0.0191,0.019,0.0204,0.0195,0.0199,0.0202,0.0224,0.0273,0.0284,0.0163,0.0163,0.0163,0,0,0.0241,0.0243,0.0248,0.0249,0.0247,0.0257,0.0238,0.024,0.0248,0.0222,0.0229,0.0216,0.0204,0.0209,0.0208,0.0199,0.0237,0.0203,0.0206,0.0227,0.0275,0.0287,0.0298,0.0163,0.0163,0.0163,0,0,0.0258,0.0256,0.0272,0.0273,0.0273,0.0269,0.0271,0.0264,0.0262,0.0264,0.025,0.0253,0.0237,0.024,0.0238,0.0257,0.0255,0.0244,0.0289,0.0335,0.0347,0.0357,0.0365,0.0375,0.0246,0.0246,0.0246,0,0.0264,0.0282,0.0275,0.029,0.0297,0.0278,0.0296,0.0291,0.0283,0.0293,0.0274,0.0283,0.026,0.0288,0.0289,0.0269,0.0284,0.0273,0.0343,0.0354,0.0363,0.0369,0.038,0.0248,0.0248,0.0248,0.0248,0,0.0294,0.0307,0.0317,0.0334,0.0339,0.035,0.0345,0.0347,0.0339,0.0342,0.0364,0.0344,0.036,0.034,0.0317,0.0368,0.0351,0.0344,0.0337,0.0379,0.0381,0.0392,0.0252,0.0251,0.025,0.025,0,0,0.0312,0.0336,0.034,0.0359,0.0364,0.0376,0.0389,0.0408,0.0441,0.0424,0.0479,0.0451,0.0453,0.0451,0.0426,0.045,0.0502,0.0425,0.0426,0.0443,0.0588,0.0529,0.0534,0.0515,0.0518,0.052,0.0553,0,0.034,0.038,0.0382,0.0423,0.0445,0.0439,0.046,0.0473,0.0489,0.0535,0.0524,0.0565,0.0492,0.0514,0.0525,0.0524,0.0538,0.0493,0.0537,0.0538,0.049,0.0548,0.0538,0.0565,0.0564,0.0566,0.0567,0,0.0371,0.0396,0.0438,0.048,0.0491,0.0511,0.0561,0.0579,0.0627,0.0649,0.0685,0.069,0.0721,0.0662,0.0683,0.0661,0.0629,0.0613,0.0614,0.0559,0.0501,0.0527,0.0584,0.0527,0.0583,0.0582,0.0581,0,0.0396,0.0438,0.0477,0.0489,0.0528,0.055,0.0572,0.0616,0.0672,0.0742,0.0822,0.0829,0.0888,0.085,0.0793,0.0757,0.0819,0.0768,0.0678,0.0672,0.0673,0.0663,0.0695,0.0792,0.0792,0.0792,0.0792,0,0.0427,0.046,0.0494,0.0516,0.0576,0.0587,0.0669,0.0694,0.0786,0.0908,0.0895,0.1012,0.0949,0.0968,0.0866,0.0813,0.0879,0.0708,0.0694,0.0682,0.0672,0.0629,0.0586,0.0794,0.0793,0.0793,0.0793,0,0.0448,0.0467,0.0521,0.057,0.059,0.0634,0.0735,0.0817,0.0887,0.1058,0.1103,0.1189,0.1213,0.1112,0.1074,0.0941,0.0826,0.0823,0.0787,0.0768,0.0593,0.0552,0.0568,0.0545,0.0732,0.0731,0.073,0,0.0463,0.0491,0.056,0.0609,0.0635,0.0708,0.0781,0.0856,0.0978,0.1185,0.13,0.1373,0.1451,0.1334,0.1115,0.0925,0.0845,0.0778,0.0697,0.0606,0.0552,0.0521,0.05,0.0707,0.0706,0.0705,0.0704,0,0.0498,0.0521,0.0571,0.0668,0.0749,0.0856,0.0975,0.1089,0.1236,0.1399,0.1622,0.1694,0.1579,0.141,0.112,0.0967,0.0731,0.0753,0.0703,0.0577,0.051,0.0474,0.0631,0.0697,0.0698,0.0699,0.0699,0.0699,0.053,0.0577,0.065,0.0744,0.0851,0.1015,0.1131,0.1303,0.1515,0.177,0.1825,0.1933,0.1663,0.127,0.1069,0.0683,0.0691,0.056,0.0529,0.0515,0.0468,0.058,0.0598,0.0598,0.0598,0.0598,0.0598,0,0.0579,0.0637,0.0729,0.0862,0.1002,0.1046,0.1279,0.1429,0.1701,0.1881,0.2044,0.1934,0.1619,0.1257,0.0742,0.0511,0.0434,0.0399,0.0381,0.0376,0.0526,0.0498,0.0443,0.0443,0.0443,0.0443,0.0443,0.0443,0.0613,0.0703,0.0751,0.0969,0.1081,0.1291,0.1437,0.1661,0.1826,0.2028,0.2049,0.2038,0.1775,0.0988,0.0502,0.0386,0.028,0.0217,0.0188,0.03,0.0313,0.0326,0.0292,0.0195,0.0194,0.0065,0.0064,0.0063]}],[{"header":{"parameterUnit":"m.s-1","parameterCategory":2,"la1":30.2991,"la2":30.254,"lo1":-89.0895,"lo2":-89.0444,"dy":0.0017,"dx":0.0017,"nx":28,"ny":28,"refTime":"2024-07-21T21:00:00:Z","depth":"2","parameterNumber":2,"parameterNumberName":"U-component_of_CURRENTS"},"data":[0,0,0,0,0,0,0,0,0,0,0,0,0,0,0,0,0,0,0,0,0,0,0,0,0,0,0,0,0,0,0,0,0,0,0,0,0,0,0,0,0,0,0,0,0,0,0,0,0,0,0,0,0,0,0,0,0,0,0.2327,0.2326,0,0.2315,0.2315,0.2315,0.23,0.23,0.2299,0.2299,0.2283,0.2283,0.2283,0,0,0,0,0,0,0,0,0,0,0,0,0,0.2354,0.2354,0.2327,0.2326,0.2326,0.2315,0.2315,0.2315,0.23,0.23,0.2299,0.2299,0.2283,0.2283,0.2283,0,0,0,0,0,0,0,0,0,0,0,0,0,0.2343,0.2353,0.2327,0.2317,0.2316,0.2315,0.2315,0.2315,0.23,0.23,0.2299,0.2299,0.2283,0.2283,0.2283,0.2291,0,0,0.2282,0.2282,0,0,0,0,0,0,0,0,0.2344,0.2342,0.2319,0.2318,0.2316,0.2308,0.2319,0.2307,0.23,0.2307,0.2299,0.2299,0.2291,0.229,0.229,0.229,0.2289,0.2282,0.2282,0.2282,0.2282,0,0,0,0,0,0,0,0.2344,0.2343,0.2323,0.2318,0.2317,0.232,0.2317,0.2317,0.2302,0.2306,0.2305,0.2303,0.229,0.229,0.2289,0.2289,0.2282,0.2282,0.2282,0.2281,0.2342,0.2344,0,0,0,0,0,0,0.2344,0.2343,0.2323,0.2322,0.2328,0.2319,0.2317,0.2312,0.2302,0.23,0.2303,0.2302,0.2291,0.229,0.2289,0.2348,0.2282,0.2281,0.2281,0.234,0.2343,0.2344,0,0,0,0,0,0,0.2345,0.2342,0.2324,0.2332,0.233,0.2319,0.2314,0.2312,0.2327,0.23,0.2298,0.2321,0.229,0.2289,0.2294,0.2345,0.2281,0.2281,0.2338,0.2341,0.2343,0.2434,0,0,0,0,0,0,0.2345,0.2342,0.235,0.2332,0.2329,0.2335,0.2314,0.2312,0.2325,0.2324,0.2315,0.2311,0.229,0.2295,0.2294,0.2344,0.2281,0.2336,0.234,0.2343,0.2429,0.2439,0.2448,0,0,0,0,0,0.2346,0.2349,0.235,0.2348,0.2336,0.2336,0.2336,0.2327,0.2326,0.2338,0.2326,0.2313,0.2316,0.2295,0.2294,0.2345,0.2335,0.2339,0.2342,0.2424,0.2437,0.2448,0,0,0,0,0,0,0.2359,0.2348,0.2348,0.2346,0.235,0.2334,0.2343,0.2342,0.2344,0.2345,0.2323,0.2319,0.2356,0.2331,0.2309,0.2373,0.2329,0.2332,0.2392,0.2403,0.2413,0.2437,0.2281,0,0,0,0,0,0.2368,0.2373,0.2362,0.2366,0.2369,0.2365,0.2368,0.2364,0.2358,0.2359,0.2352,0.2351,0.2371,0.2368,0.2377,0.2395,0.2416,0.2431,0.2441,0.245,0.2469,0.2563,0.2584,0.2357,0.2357,0.2357,0,0,0.237,0.237,0.2369,0.2372,0.2373,0.238,0.2366,0.2377,0.2397,0.2357,0.2385,0.2391,0.2387,0.2419,0.2433,0.24,0.2519,0.2455,0.2462,0.2477,0.257,0.2592,0.2612,0.236,0.2359,0.2359,0,0,0.238,0.2383,0.2391,0.2399,0.2409,0.2405,0.2415,0.2413,0.2432,0.2452,0.2448,0.248,0.2481,0.2499,0.2507,0.2575,0.258,0.258,0.2636,0.2728,0.2748,0.2766,0.2798,0.2819,0.2571,0.2571,0.2571,0,0.2391,0.239,0.2396,0.241,0.2416,0.242,0.2431,0.2454,0.2458,0.2493,0.2471,0.2534,0.2528,0.2595,0.2618,0.2603,0.2635,0.2591,0.2743,0.2762,0.2779,0.2808,0.2829,0.2576,0.2575,0.2575,0.2574,0,0.2393,0.2408,0.2416,0.2433,0.2447,0.2456,0.248,0.2507,0.2528,0.2562,0.2643,0.2643,0.2684,0.2693,0.2673,0.2793,0.277,0.2759,0.2718,0.2808,0.2831,0.2852,0.2583,0.2581,0.258,0.2578,0,0,0.2379,0.2411,0.2415,0.2429,0.2458,0.2462,0.2515,0.2568,0.2628,0.2662,0.2743,0.2793,0.2823,0.2835,0.2832,0.2895,0.303,0.2879,0.2882,0.2918,0.3207,0.3007,0.3009,0.3058,0.3063,0.3066,0.3168,0,0.2381,0.2404,0.2423,0.2449,0.246,0.2491,0.2558,0.2618,0.267,0.2754,0.2813,0.2892,0.2872,0.2902,0.2975,0.3033,0.3093,0.3002,0.3109,0.3111,0.293,0.303,0.2771,0.2824,0.3188,0.3191,0.3193,0,0.237,0.239,0.2413,0.2476,0.2488,0.2521,0.2608,0.2665,0.2799,0.2853,0.2944,0.2994,0.3108,0.3066,0.3232,0.318,0.321,0.3234,0.3238,0.3038,0.2951,0.2797,0.2848,0.3228,0.3225,0.3222,0.322,0,0.2334,0.2382,0.2398,0.241,0.2485,0.2529,0.2586,0.2711,0.2795,0.2924,0.3002,0.313,0.3212,0.3297,0.3351,0.3318,0.3509,0.3464,0.3304,0.3288,0.3079,0.3036,0.3584,0.3584,0.3584,0.3584,0.3583,0,0.231,0.2323,0.2393,0.2395,0.248,0.2534,0.2651,0.2723,0.2865,0.2968,0.3069,0.315,0.3287,0.3391,0.3415,0.3425,0.3572,0.3339,0.332,0.3095,0.3054,0.341,0.3389,0.3587,0.3587,0.3586,0.3585,0,0.2256,0.2292,0.2324,0.2412,0.2462,0.2523,0.2691,0.2752,0.2909,0.303,0.3079,0.3235,0.3336,0.3427,0.3554,0.3491,0.3518,0.3476,0.3165,0.3105,0.3214,0.3196,0.3312,0.3306,0.3301,0.3297,0.3293,0,0.222,0.2233,0.2332,0.2377,0.2421,0.2538,0.261,0.2762,0.2807,0.3048,0.3067,0.3238,0.3271,0.3377,0.3321,0.3313,0.3424,0.3032,0.2902,0.3226,0.3197,0.3187,0.3176,0.2667,0.2659,0.2652,0.2647,0,0.2173,0.2217,0.2256,0.2344,0.2412,0.2504,0.2603,0.2654,0.2802,0.2892,0.2992,0.3058,0.3131,0.2979,0.296,0.2916,0.3006,0.2883,0.3384,0.274,0.2616,0.2587,0.2599,0.2586,0.2592,0.2597,0.26,0.2602,0.2164,0.2184,0.2244,0.2321,0.2401,0.2451,0.2482,0.2528,0.2599,0.2656,0.2779,0.2758,0.2768,0.2568,0.248,0.2411,0.2606,0.2474,0.2497,0.2528,0.2399,0.2269,0.2149,0.2152,0.2155,0.2158,0.216,0,0.2148,0.2172,0.2217,0.2275,0.2293,0.2395,0.2448,0.239,0.2371,0.2401,0.2422,0.2184,0.2056,0.2095,0.1879,0.1823,0.1847,0.1744,0.177,0.183,0.1884,0.1725,0.1295,0.1293,0.129,0.1288,0,0,0.2145,0.2163,0.2163,0.2171,0.2214,0.2197,0.2224,0.213,0.2103,0.1968,0.1903,0.1982,0.2035,0.1654,0.1575,0.1408,0.1622,0.1346,0.2042,0.2137,0.2188,0.2302,0.2122,0,0,0,0,0]},{"header":{"parameterUnit":"m.s-1","parameterCategory":2,"la1":30.2991,"la2":30.254,"lo1":-89.0895,"lo2":-89.0444,"dy":0.0017,"dx":0.0017,"nx":28,"ny":28,"refTime":"2024-07-21T21:00:00:Z","depth":"2","parameterNumber":3,"parameterNumberName":"V-component_of_CURRENTS"},"data":[0,0,0,0,0,0,0,0,0,0,0,0,0,0,0,0,0,0,0,0,0,0,0,0,0,0,0,0,0,0,0,0,0,0,0,0,0,0,0,0,0,0,0,0,0,0,0,0,0,0,0,0,0,0,0,0,0,0,0.0053,0.0053,0,0.0053,0.0053,0.0053,0.0057,0.0057,0.0058,0.0058,0.0035,0.0034,0.0033,0,0,0,0,0,0,0,0,0,0,0,0,0,0.0049,0.0049,0.0053,0.0053,0.0053,0.0053,0.0053,0.0053,0.0057,0.0057,0.0058,0.0058,0.0035,0.0034,0.0033,0,0,0,0,0,0,0,0,0,0,0,0,0,0.005,0.0049,0.0053,0.0055,0.0055,0.0053,0.0053,0.0053,0.0057,0.0057,0.0058,0.0058,0.0035,0.0034,0.0033,0.0024,0,0,0.003,0.0029,0,0,0,0,0,0,0,0,0.005,0.005,0.0054,0.0055,0.0055,0.0055,0.0043,0.0042,0.0057,0.0056,0.0058,0.0058,0.0039,0.0038,0.0038,0.0023,0.0022,0.003,0.0029,0.0029,0.0028,0,0,0,0,0,0,0,0.005,0.005,0.0053,0.0054,0.0055,0.0053,0.0054,0.0043,0.0047,0.0057,0.0057,0.0057,0.0039,0.0039,0.0037,0.0021,0.003,0.0029,0.0028,0.0028,0.0014,0.0014,0,0,0,0,0,0,0.005,0.005,0.0053,0.0053,0.0053,0.0053,0.0054,0.0055,0.0047,0.0046,0.0057,0.0057,0.0041,0.0039,0.0037,0.0047,0.0029,0.0028,0.0027,0.0013,0.0014,0.0014,0,0,0,0,0,0,0.005,0.005,0.0053,0.0051,0.0052,0.0053,0.0055,0.0055,0.0058,0.0048,0.0046,0.006,0.0041,0.0038,0.0035,0.0045,0.0027,0.0026,0.0013,0.0014,0.0014,0.0054,0,0,0,0,0,0,0.005,0.005,0.0053,0.0051,0.0052,0.0058,0.0054,0.0055,0.0058,0.0058,0.005,0.0048,0.0041,0.0037,0.0034,0.0043,0.0025,0.0013,0.0013,0.0014,0.0052,0.0055,0.0058,0,0,0,0,0,0.005,0.0057,0.0053,0.0054,0.0055,0.0058,0.0059,0.006,0.0058,0.0063,0.0058,0.0048,0.0038,0.0036,0.0033,0.0042,0.0013,0.0013,0.0014,0.0051,0.0055,0.0058,0,0,0,0,0,0,0.0057,0.0058,0.0054,0.0061,0.0061,0.0059,0.0066,0.0062,0.0062,0.0061,0.0051,0.0048,0.005,0.0038,0.0036,0.0039,0.0024,0.0024,0.0053,0.0056,0.0059,0.0083,0.0025,0,0,0,0,0,0.0059,0.0067,0.0062,0.0069,0.0069,0.0066,0.0068,0.0066,0.0064,0.0065,0.0059,0.0051,0.0049,0.0047,0.004,0.0039,0.0043,0.0043,0.0046,0.0049,0.0066,0.0088,0.0095,0.0016,0.0016,0.0016,0,0,0.0063,0.0066,0.0069,0.0071,0.0072,0.0082,0.0068,0.0072,0.0082,0.0061,0.0072,0.0061,0.005,0.0054,0.0054,0.0047,0.0069,0.005,0.0052,0.0068,0.0089,0.0097,0.0104,0.0016,0.0016,0.0016,0,0,0.0082,0.0078,0.0092,0.0094,0.0095,0.0094,0.0095,0.0093,0.0093,0.0097,0.0087,0.0087,0.0077,0.0079,0.0077,0.0092,0.0084,0.0081,0.0118,0.014,0.0147,0.0153,0.0152,0.0159,0.0084,0.0084,0.0084,0,0.0089,0.0106,0.0096,0.0111,0.0119,0.0102,0.0119,0.0116,0.0113,0.0123,0.0106,0.0113,0.0094,0.0116,0.0117,0.0101,0.0105,0.0106,0.0146,0.0152,0.0158,0.0156,0.0162,0.0086,0.0086,0.0086,0.0086,0,0.0118,0.0132,0.0141,0.0156,0.016,0.0171,0.0165,0.0167,0.0162,0.0167,0.0182,0.0163,0.0176,0.0159,0.0141,0.0173,0.0157,0.0147,0.0141,0.0169,0.0164,0.017,0.0089,0.0088,0.0088,0.0087,0,0,0.0137,0.0159,0.0164,0.0181,0.0186,0.0195,0.0206,0.0223,0.0254,0.0236,0.0282,0.0255,0.0254,0.0252,0.0229,0.0234,0.0261,0.021,0.021,0.0216,0.0297,0.0244,0.0245,0.0261,0.0263,0.0264,0.0271,0,0.0168,0.0207,0.0207,0.0245,0.0266,0.0256,0.0277,0.0287,0.0299,0.0338,0.0319,0.0354,0.0288,0.0307,0.0299,0.0285,0.0281,0.0259,0.0262,0.0262,0.0219,0.0252,0.0266,0.027,0.0277,0.0278,0.0278,0,0.0201,0.0225,0.0266,0.0303,0.0311,0.0331,0.0373,0.0389,0.0426,0.0445,0.0467,0.0466,0.0477,0.0421,0.0403,0.0394,0.035,0.0321,0.0321,0.0267,0.0221,0.0245,0.0281,0.0288,0.0287,0.0287,0.0286,0,0.0228,0.0269,0.0306,0.0316,0.035,0.0371,0.039,0.0427,0.0477,0.0529,0.0597,0.0583,0.0623,0.0561,0.0487,0.0459,0.0465,0.0423,0.0327,0.0321,0.0333,0.0326,0.0412,0.0412,0.0412,0.0412,0.0412,0,0.0262,0.0293,0.0325,0.0346,0.0405,0.0411,0.0488,0.0507,0.0586,0.069,0.0666,0.0753,0.0666,0.0655,0.0545,0.046,0.0512,0.0347,0.033,0.0342,0.0336,0.0352,0.0346,0.0412,0.0412,0.0412,0.0412,0,0.0286,0.0304,0.0354,0.04,0.042,0.0462,0.0556,0.0628,0.069,0.0833,0.0868,0.0912,0.089,0.0774,0.0692,0.0565,0.0466,0.0416,0.042,0.0402,0.0288,0.0283,0.0316,0.0315,0.0314,0.0312,0.0311,0,0.0301,0.0329,0.0393,0.0441,0.0467,0.0537,0.0604,0.0672,0.0779,0.0939,0.1034,0.1057,0.1084,0.0918,0.0709,0.051,0.0474,0.0375,0.0312,0.0303,0.0283,0.028,0.0277,0.0339,0.0339,0.0338,0.0338,0,0.0335,0.0357,0.0404,0.0497,0.0574,0.0674,0.0786,0.089,0.1011,0.1135,0.1294,0.1318,0.1169,0.0979,0.069,0.0544,0.0399,0.0354,0.0392,0.0346,0.0321,0.0302,0.03,0.0333,0.0334,0.0334,0.0334,0.0335,0.0368,0.0409,0.0477,0.0569,0.0669,0.0823,0.0934,0.1078,0.1251,0.1431,0.1439,0.1455,0.1239,0.086,0.0624,0.0368,0.0377,0.0264,0.0268,0.0272,0.0258,0.0231,0.0222,0.0222,0.0222,0.0222,0.0222,0,0.0413,0.0466,0.055,0.0679,0.0809,0.0854,0.1069,0.1188,0.1402,0.1496,0.1576,0.1348,0.1134,0.0875,0.0503,0.0272,0.026,0.0181,0.0227,0.0233,0.0239,0.0224,0.0179,0.0178,0.0178,0.0177,0,0,0.0443,0.0524,0.0566,0.0775,0.0886,0.1082,0.122,0.1381,0.1486,0.1557,0.1539,0.1479,0.1198,0.0907,0.0611,0.0403,0.0363,0.0347,0.0406,0.0503,0.0511,0.0311,0.0299,0,0,0,0,0]}],[{"header":{"parameterUnit":"m.s-1","parameterCategory":2,"la1":30.2991,"la2":30.254,"lo1":-89.0895,"lo2":-89.0444,"dy":0.0017,"dx":0.0017,"nx":28,"ny":28,"refTime":"2024-07-21T21:00:00:Z","depth":"4","parameterNumber":2,"parameterNumberName":"U-component_of_CURRENTS"},"data":[0,0,0,0,0,0,0,0,0,0,0,0,0,0,0,0,0,0,0,0,0,0,0,0,0,0,0,0,0,0,0,0,0,0,0,0,0,0,0,0,0,0,0,0,0,0,0,0,0,0,0,0,0,0,0,0,0,0,0.126,0.1261,0,0.1325,0.1325,0.1326,0.1381,0.1382,0.1383,0.1383,0.1419,0.1419,0.1419,0,0,0,0,0,0,0,0,0,0,0,0,0,0.1226,0.1226,0.126,0.1261,0.1262,0.1325,0.1325,0.1326,0.138,0.1382,0.1383,0.1384,0.1419,0.1419,0.1419,0,0,0,0,0,0,0,0,0,0,0,0,0,0.1257,0.1226,0.126,0.13,0.1304,0.1325,0.1325,0.1326,0.138,0.1382,0.1383,0.1384,0.1419,0.1419,0.1419,0.1391,0,0,0.142,0.142,0,0,0,0,0,0,0,0,0.1255,0.1258,0.1293,0.1297,0.1302,0.135,0.1327,0.1348,0.138,0.1347,0.1383,0.1385,0.1395,0.1397,0.1401,0.1393,0.1394,0.142,0.142,0.142,0.142,0,0,0,0,0,0,0,0.1253,0.1255,0.1282,0.1294,0.13,0.133,0.1335,0.1331,0.1358,0.135,0.1355,0.1368,0.1397,0.1401,0.1402,0.1395,0.142,0.142,0.142,0.142,0.146,0.1461,0,0,0,0,0,0,0.1249,0.1253,0.128,0.1284,0.1286,0.1329,0.1335,0.133,0.1359,0.1367,0.1367,0.1371,0.14,0.1402,0.1403,0.1457,0.142,0.142,0.142,0.1459,0.146,0.1461,0,0,0,0,0,0,0.1247,0.1249,0.1277,0.1275,0.1281,0.1329,0.1322,0.133,0.1368,0.1373,0.138,0.1401,0.1401,0.1403,0.1426,0.1456,0.142,0.142,0.1458,0.1459,0.1461,0.151,0,0,0,0,0,0,0.1246,0.1248,0.1259,0.1273,0.1281,0.1307,0.1322,0.1331,0.1374,0.138,0.1404,0.1407,0.1402,0.1426,0.1426,0.1455,0.142,0.1456,0.1458,0.146,0.1507,0.1513,0.1518,0,0,0,0,0,0.1244,0.125,0.1258,0.1263,0.1288,0.1308,0.1315,0.1351,0.1375,0.1391,0.1409,0.1408,0.1439,0.1427,0.1427,0.1457,0.1455,0.1458,0.146,0.1504,0.1512,0.1518,0,0,0,0,0,0,0.1248,0.1257,0.1266,0.1277,0.13,0.132,0.1347,0.1367,0.1394,0.1412,0.1413,0.1417,0.1456,0.1443,0.143,0.1474,0.145,0.1452,0.1483,0.149,0.1496,0.1515,0.142,0,0,0,0,0,0.125,0.1257,0.1271,0.1286,0.1298,0.1326,0.1347,0.1371,0.1392,0.1409,0.1423,0.144,0.1457,0.1465,0.1477,0.1488,0.1504,0.151,0.1515,0.152,0.1536,0.1602,0.1616,0.1469,0.1469,0.1469,0,0,0.1261,0.1267,0.1274,0.1289,0.1311,0.1326,0.1343,0.1382,0.1399,0.1405,0.144,0.1465,0.1468,0.1494,0.1509,0.149,0.1564,0.1523,0.1527,0.1541,0.1606,0.1621,0.1633,0.147,0.147,0.147,0,0,0.1276,0.1286,0.1295,0.1309,0.1345,0.1355,0.1372,0.1404,0.1425,0.1458,0.1473,0.1514,0.1532,0.154,0.1546,0.1584,0.1599,0.1595,0.1629,0.1693,0.1707,0.1718,0.1732,0.1745,0.1588,0.1588,0.1588,0,0.1292,0.1294,0.1306,0.1317,0.1331,0.1368,0.1382,0.1402,0.1441,0.1458,0.1481,0.1549,0.1554,0.1585,0.1609,0.1598,0.163,0.1603,0.1703,0.1715,0.1726,0.1737,0.1751,0.1591,0.159,0.159,0.159,0,0.1301,0.1315,0.1325,0.134,0.1356,0.138,0.1399,0.1432,0.1472,0.1495,0.1561,0.1588,0.163,0.1641,0.1642,0.1718,0.1712,0.1711,0.1689,0.1744,0.1751,0.1765,0.1594,0.1593,0.1593,0.1592,0,0,0.13,0.1325,0.1332,0.133,0.137,0.1371,0.1411,0.144,0.1475,0.1536,0.1589,0.164,0.1685,0.1696,0.1711,0.1769,0.1866,0.1787,0.1789,0.1805,0.1996,0.1837,0.1836,0.1905,0.1908,0.191,0.1959,0,0.1307,0.1315,0.1333,0.1344,0.1342,0.1381,0.1403,0.1441,0.1498,0.1559,0.1616,0.1681,0.1691,0.1742,0.1802,0.1866,0.191,0.1852,0.1936,0.1937,0.1795,0.1849,0.1921,0.1969,0.1972,0.1974,0.1976,0,0.1302,0.1302,0.1313,0.1319,0.1325,0.1346,0.1392,0.1423,0.1514,0.157,0.1663,0.1721,0.1816,0.1829,0.1959,0.1935,0.1975,0.2014,0.2016,0.1866,0.1805,0.1908,0.1999,0.1998,0.1996,0.1994,0.1993,0,0.1262,0.128,0.1281,0.1286,0.1311,0.1332,0.1361,0.1437,0.1473,0.1604,0.1679,0.1781,0.1872,0.1953,0.2032,0.2025,0.2171,0.2152,0.2031,0.2018,0.2125,0.2112,0.2243,0.2243,0.2243,0.2243,0.2243,0,0.1236,0.1238,0.1265,0.1263,0.1259,0.13,0.1341,0.1396,0.1505,0.1565,0.1693,0.1772,0.1929,0.202,0.2062,0.208,0.2188,0.2049,0.2034,0.2137,0.2126,0.2132,0.2119,0.2245,0.2245,0.2244,0.2244,0,0.1185,0.1218,0.1202,0.1229,0.1242,0.1239,0.1315,0.1348,0.148,0.1581,0.1637,0.1808,0.1933,0.2029,0.2164,0.2106,0.2139,0.2111,0.2197,0.2184,0.1931,0.192,0.1979,0.1974,0.1969,0.1966,0.1963,0,0.1159,0.115,0.1161,0.1154,0.1172,0.1193,0.1215,0.1323,0.137,0.1579,0.1613,0.1797,0.1895,0.195,0.2052,0.209,0.2072,0.2048,0.2007,0.1932,0.1912,0.1907,0.1901,0.1957,0.1955,0.1954,0.1953,0,0.1084,0.11,0.108,0.1069,0.1079,0.1085,0.1137,0.1165,0.131,0.1449,0.1574,0.1661,0.1787,0.1875,0.1919,0.194,0.2044,0.2004,0.2013,0.1975,0.1906,0.1889,0.1888,0.1939,0.1941,0.1942,0.1943,0,0.1024,0.0985,0.0972,0.0941,0.0966,0.0973,0.101,0.1074,0.1141,0.1381,0.1415,0.1616,0.1776,0.1796,0.1831,0.1845,0.1821,0.1749,0.1771,0.1788,0.1702,0.1585,0.1517,0,0,0,0,0,0.0949,0.0889,0.0851,0.0818,0.085,0.0875,0.0949,0.1003,0.1159,0.1208,0.1313,0.1426,0.1533,0.1618,0.1598,0.172,0.1803,0.1681,0.1725,0.1859,0.1876,0.1791,0,0,0,0,0,0,0.0899,0.085,0.0802,0.0727,0.0715,0.0742,0.0798,0.0902,0.0931,0.1115,0.1183,0.1322,0.1442,0.155,0.1574,0.1594,0.1584,0.179,0.1785,0.185,0.1865,0.1878,0.1797,0,0,0,0,0]},{"header":{"parameterUnit":"m.s-1","parameterCategory":2,"la1":30.2991,"la2":30.254,"lo1":-89.0895,"lo2":-89.0444,"dy":0.0017,"dx":0.0017,"nx":28,"ny":28,"refTime":"2024-07-21T21:00:00:Z","depth":"4","parameterNumber":3,"parameterNumberName":"V-component_of_CURRENTS"},"data":[0,0,0,0,0,0,0,0,0,0,0,0,0,0,0,0,0,0,0,0,0,0,0,0,0,0,0,0,0,0,0,0,0,0,0,0,0,0,0,0,0,0,0,0,0,0,0,0,0,0,0,0,0,0,0,0,0,0,0.0022,0.0022,0,0.0018,0.0018,0.0018,0.0019,0.0019,0.0019,0.0019,0.0006,0.0005,0.0005,0,0,0,0,0,0,0,0,0,0,0,0,0,0.0022,0.0022,0.0022,0.0022,0.0022,0.0018,0.0018,0.0018,0.0019,0.0019,0.0019,0.0019,0.0006,0.0005,0.0005,0,0,0,0,0,0,0,0,0,0,0,0,0,0.0021,0.0022,0.0022,0.0021,0.0021,0.0018,0.0018,0.0018,0.0019,0.0019,0.0019,0.0019,0.0006,0.0005,0.0005,0.0001,0,0,0.0003,0.0003,0,0,0,0,0,0,0,0,0.0021,0.0021,0.0022,0.0021,0.0021,0.0019,0.0014,0.0012,0.0019,0.002,0.0019,0.0019,0.0009,0.0008,0.0008,0.0,-0.0,0.0003,0.0003,0.0003,0.0002,0,0,0,0,0,0,0,0.0021,0.0021,0.0021,0.0021,0.0021,0.0019,0.0019,0.0013,0.0015,0.002,0.002,0.0019,0.0009,0.0009,0.0008,-0.0001,0.0003,0.0003,0.0002,0.0002,0.0007,0.0008,0,0,0,0,0,0,0.0021,0.0021,0.0021,0.0021,0.0021,0.0019,0.0019,0.002,0.0015,0.0014,0.0019,0.0019,0.001,0.0008,0.0007,0.0024,0.0003,0.0002,0.0002,0.0007,0.0007,0.0008,0,0,0,0,0,0,0.0021,0.0021,0.0021,0.002,0.002,0.0019,0.002,0.002,0.0021,0.0014,0.0013,0.002,0.001,0.0008,0.001,0.0022,0.0002,0.0001,0.0006,0.0007,0.0008,0.0042,0,0,0,0,0,0,0.0021,0.0021,0.0023,0.0021,0.002,0.0024,0.002,0.002,0.002,0.002,0.0015,0.0013,0.0009,0.001,0.0009,0.0021,0.0001,0.0006,0.0006,0.0007,0.004,0.0044,0.0047,0,0,0,0,0,0.0021,0.0027,0.0024,0.0024,0.0023,0.0024,0.0024,0.0023,0.002,0.0023,0.0022,0.0014,0.0015,0.001,0.0008,0.0021,0.0005,0.0006,0.0007,0.0039,0.0043,0.0047,0,0,0,0,0,0,0.0028,0.0027,0.0024,0.0028,0.0027,0.0024,0.0028,0.0024,0.0025,0.0024,0.0018,0.0017,0.0023,0.0015,0.001,0.0025,0.0009,0.001,0.0034,0.0038,0.0041,0.0053,0.0,0,0,0,0,0,0.003,0.0035,0.003,0.0035,0.0034,0.003,0.003,0.0028,0.0027,0.0028,0.0025,0.0023,0.0025,0.0027,0.0025,0.003,0.0014,0.0038,0.0041,0.0044,0.0052,0.0038,0.0041,0.0011,0.0011,0.0011,0,0,0.0033,0.0033,0.0036,0.0036,0.0035,0.0045,0.0031,0.0032,0.0043,0.0025,0.0039,0.0032,0.0029,0.0039,0.0041,0.0035,0.0041,0.0045,0.0048,0.0055,0.004,0.0043,0.0045,0.0012,0.0012,0.0012,0,0,0.0046,0.0043,0.0052,0.0055,0.0054,0.0053,0.0054,0.0052,0.0054,0.0061,0.0055,0.0058,0.0056,0.0063,0.0064,0.0084,0.0058,0.0079,0.0108,0.0095,0.0097,0.0099,0.0072,0.0071,0.0083,0.0083,0.0083,0,0.0051,0.0064,0.0055,0.0066,0.0077,0.006,0.0077,0.0076,0.0075,0.0086,0.007,0.0079,0.0072,0.0094,0.0101,0.0092,0.0072,0.0094,0.0099,0.0101,0.0102,0.0074,0.0073,0.0085,0.0085,0.0085,0.0084,0,0.0072,0.0085,0.0091,0.0104,0.0111,0.0122,0.0121,0.0128,0.0125,0.0127,0.014,0.0125,0.0135,0.0129,0.0121,0.0134,0.0112,0.0102,0.0089,0.0107,0.0076,0.0074,0.0088,0.0087,0.0086,0.0086,0,0,0.0083,0.0103,0.0107,0.013,0.0135,0.015,0.0166,0.0186,0.021,0.0193,0.0219,0.0213,0.02,0.0201,0.0185,0.0172,0.0157,0.0143,0.0141,0.0117,0.0114,0.0108,0.0105,0.0145,0.0145,0.0145,0.0084,0,0.0106,0.0141,0.0145,0.0189,0.0211,0.0213,0.0239,0.0253,0.0255,0.0272,0.0251,0.0265,0.0228,0.0234,0.0213,0.0176,0.0155,0.0174,0.01,0.0098,0.0091,0.0104,0.0145,0.0083,0.0082,0.0082,0.0082,0,0.0128,0.0155,0.0196,0.025,0.0262,0.0287,0.0335,0.0356,0.0368,0.0369,0.0365,0.0341,0.0326,0.0286,0.0223,0.0233,0.018,0.0139,0.0136,0.0121,0.009,0.0063,0.0078,0.0078,0.0078,0.0079,0.0079,0,0.0148,0.0196,0.0236,0.0251,0.0299,0.0331,0.0364,0.039,0.0428,0.0431,0.0447,0.041,0.04,0.0328,0.0236,0.0231,0.0151,0.0135,0.0077,0.0075,0.0081,0.008,0.0091,0.0091,0.0091,0.0091,0.0091,0,0.0173,0.021,0.0254,0.0278,0.0352,0.0372,0.045,0.0467,0.0505,0.0552,0.0502,0.051,0.041,0.0347,0.0254,0.0158,0.0164,0.0086,0.0065,0.0095,0.0096,0.0079,0.0078,0.0089,0.0089,0.009,0.009,0,0.0183,0.0206,0.0265,0.033,0.0361,0.0415,0.0517,0.0571,0.059,0.0641,0.0645,0.0593,0.051,0.0397,0.0277,0.0195,0.0096,0.0058,0.0092,0.0072,0.0021,0.0023,-0.0005,-0.0005,-0.0006,-0.0006,-0.0006,0,0.019,0.0216,0.0303,0.0357,0.0392,0.0483,0.0552,0.0608,0.0658,0.0688,0.0705,0.0646,0.0593,0.0415,0.0288,0.0114,0.0088,0.0027,0.0032,0.0033,0.0014,0.0017,0.002,-0.0007,-0.0007,-0.0007,-0.0008,0,0.021,0.0235,0.0289,0.0397,0.048,0.0574,0.0664,0.0706,0.0762,0.0781,0.0761,0.0672,0.0576,0.0424,0.029,0.0162,0.0063,0.0022,0.0022,0.0026,0.0029,0.0012,0.0015,-0.0009,-0.0009,-0.0009,-0.0009,0,0.0229,0.0272,0.0345,0.0445,0.0544,0.0629,0.0682,0.0743,0.0794,0.0811,0.0799,0.0694,0.0635,0.0448,0.0321,0.0199,0.0169,0.0118,0.0113,0.0113,0.0163,0.0185,0.0184,0,0,0,0,0,0.025,0.0306,0.0397,0.0503,0.0596,0.0653,0.0743,0.0783,0.0826,0.0821,0.0816,0.0725,0.0549,0.0465,0.0346,0.0303,0.0139,0.0156,0.0077,-0.0018,-0.0016,0.0022,0,0,0,0,0,0,0.0271,0.0346,0.0397,0.0526,0.0601,0.0706,0.076,0.079,0.0786,0.0802,0.071,0.0682,0.0508,0.0618,0.0339,0.0303,0.0232,0.008,0.0077,-0.0019,-0.0018,-0.0016,0.0024,0,0,0,0,0]}]]